Flag for Spain Weather past 2 weeks in Santa Cruz de Tenerife, Canary Islands, Spain

77 °F

Passing clouds.

Feels Like: 79 °F
Forecast: 78 / 86 °F
Wind: 7 mph from Northwest

Location: Tenerife / Los Rodeos

Current Time: Oct 4, 2015 at 6:53:45 PM

Latest Report: Oct 4, 2015 at 6:30 PM

Visibility: N/A

Pressure: 30.18 "Hg

Humidity: 79%

Dew point: 70 °F

Location of Santa Cruz de TenerifeLocation

Historic Weather in Santa Cruz de Tenerife — Graph


Santa Cruz de Tenerife temperature yesterday

Maximum temperature yesterday: 84 °F (at 1:00 PM)
Minimum temperature yesterday: 70 °F (at 6:30 AM)
Average temperature yesterday: 77 °F

Past Weeks' High & Low Weather Summary

High84 °F (Sep 22, 1:00 PM)100% (Sep 21, 6:00 AM)30.21 "Hg (Sep 21, 6:00 AM)
Low59 °F (Sep 30, 6:00 AM)37% (Sep 22, 12:30 PM)30.01 "Hg (Sep 28, 5:30 PM)
Average70 °F77%30.10 "Hg
* Reported Sep 19 5:00 PM — Oct 4 5:30 PM, Santa Cruz de Tenerife, Weather by CustomWeather, © 2015

Note: Actual official high and low records may vary slightly from our data, if they occured in-between our weather recording intervals... More about our weather records


Santa Cruz de Tenerife weather history for previous 24 hours

Time TempWeatherWind HumidityBarometerVisibility
5:30 PM
Sun, Oct 4
77 °FPassing clouds.5 mph79%30.18 "HgN/A
5:00 PM79 °FPassing clouds.6 mph61%30.18 "HgN/A
4:30 PM79 °FPassing clouds.9 mph61%30.18 "HgN/A
4:00 PM82 °FPassing clouds.7 mph51%30.15 "HgN/A
3:30 PM82 °FPassing clouds.2 mph48%30.18 "HgN/A
3:00 PM82 °FPassing clouds.6 mph48%30.15 "HgN/A
2:30 PM79 °FPassing clouds.7 mph65%30.18 "HgN/A
2:00 PM82 °FPassing clouds.10 mph48%30.18 "HgN/A
1:30 PM84 °FPassing clouds.10 mph40%30.18 "HgN/A
1:00 PM82 °FPassing clouds.10 mph42%30.18 "HgN/A
12:30 PM82 °FPassing clouds.8 mph42%30.18 "HgN/A
12:00 PM81 °FPassing clouds.7 mph45%30.18 "HgN/A
11:30 AM81 °FPassing clouds.3 mph48%30.18 "HgN/A
11:00 AM77 °FPassing clouds.3 mph65%30.18 "HgN/A
10:30 AM73 °FSunny.10 mph74%30.21 "Hg10 mi
10:00 AM72 °FSunny.13 mph83%30.21 "Hg10 mi
9:30 AM72 °FSunny.10 mph83%30.18 "Hg10 mi
9:00 AM72 °FSunny.12 mph83%30.15 "Hg10 mi
8:30 AM72 °FClear.9 mph78%30.15 "Hg10 mi
8:00 AM72 °FClear.12 mph78%30.15 "Hg10 mi
7:30 AM79 °FClear.2 mph48%30.12 "Hg10 mi
7:00 AM81 °FPassing clouds.7 mph45%30.12 "HgN/A
6:30 AM82 °FClear.7 mph42%30.12 "Hg6 mi
6:00 AM82 °FClear.6 mph42%30.12 "Hg6 mi
11:00 PM
Sat, Oct 3
75 °FClear.2 mph61%30.12 "Hg10 mi
10:30 PM77 °FClear.2 mph57%30.12 "Hg10 mi
10:00 PM75 °FClear.No wind61%30.12 "Hg10 mi
9:30 PM75 °FClear.2 mph61%30.12 "Hg10 mi
9:00 PM75 °FPassing clouds.6 mph61%30.09 "HgN/A
8:30 PM75 °FSunny.5 mph61%30.09 "Hg10 mi
8:00 PM77 °FSunny.7 mph57%30.09 "Hg10 mi
7:30 PM81 °FPassing clouds.10 mph51%30.07 "HgN/A
7:00 PM77 °FSunny.7 mph61%30.07 "Hg10 mi
6:30 PM77 °FSunny.8 mph57%30.07 "Hg10 mi
6:00 PM77 °FSunny.9 mph61%30.07 "Hg10 mi
Weather by CustomWeather, © 2015

See weather overviewHow to use our weather pages